Location: Anankanda
(14.7841°N, 3.0348°W)
Time: 06:04:15
(UTC+00:00)

Meteor 2-1 Rocket - Pass Details

Date: 17 January 2021
Orbit: 827 x 909 km, 81.3° (Epoch: 07 March)

Event Time Altitude Azimuth Distance (km) Brightness Sun altitude
Rises 19:09:17 0° 6° (N) 3,374 7.1 -15.9°
Reaches altitude 10° 19:11:49 10° 13° (NNE) 2,433 6.3 -16.5°
Maximum altitude 19:16:59 41° 83° (E) 1,174 4.5 -17.6°
Drops below altitude 10° 19:22:06 10° 153° (SSE) 2,423 6.5 -18.8°
Sets 19:24:38 0° 160° (SSE) 3,359 7.3 -19.4°
